TimeEST,TemperatureF,Dew PointF,Humidity,Sea Level PressureIn,VisibilityMPH,Wind Direction,Wind SpeedMPH,Gust SpeedMPH,PrecipitationIn,Events,Conditions,WindDirDegrees,DateUTC
12:53 AM,48.9,44.1,83,30.03,10.0,NE,5.8,-,N/A,,Overcast,50,2012-11-05 05:53:00
1:53 AM,46.9,43.0,86,30.04,10.0,NE,5.8,-,N/A,,Mostly Cloudy,50,2012-11-05 06:53:00
2:53 AM,48.0,39.9,74,30.05,10.0,NE,10.4,-,N/A,,Mostly Cloudy,40,2012-11-05 07:53:00
3:53 AM,46.9,39.0,74,30.05,10.0,NNE,11.5,-,N/A,,Overcast,30,2012-11-05 08:53:00
4:53 AM,46.9,37.9,71,30.07,10.0,NNE,8.1,-,N/A,,Overcast,20,2012-11-05 09:53:00
5:53 AM,45.0,36.0,71,30.09,10.0,NNE,6.9,-,N/A,,Partly Cloudy,20,2012-11-05 10:53:00
6:53 AM,44.1,35.1,71,30.10,10.0,NNE,8.1,-,N/A,,Overcast,30,2012-11-05 11:53:00
7:53 AM,45.0,35.1,68,30.12,10.0,NNE,6.9,-,N/A,,Clear,30,2012-11-05 12:53:00
8:53 AM,46.9,33.1,59,30.12,10.0,NE,10.4,-,N/A,,Clear,40,2012-11-05 13:53:00
9:53 AM,51.1,33.1,50,30.13,10.0,NNE,10.4,-,N/A,,Clear,20,2012-11-05 14:53:00
10:53 AM,53.1,30.9,43,30.12,10.0,North,8.1,-,N/A,,Clear,10,2012-11-05 15:53:00
11:53 AM,55.0,30.0,38,30.10,10.0,Variable,3.5,-,N/A,,Clear,0,2012-11-05 16:53:00
12:53 PM,57.0,28.0,33,30.06,10.0,NNE,6.9,-,N/A,,Clear,30,2012-11-05 17:53:00
1:53 PM,59.0,27.0,29,30.05,10.0,Variable,5.8,-,N/A,,Clear,0,2012-11-05 18:53:00
2:53 PM,60.1,26.1,27,30.03,10.0,North,4.6,-,N/A,,Clear,10,2012-11-05 19:53:00
3:53 PM,59.0,26.1,28,30.04,10.0,Calm,Calm,-,N/A,,Clear,0,2012-11-05 20:53:00
4:53 PM,55.0,30.0,38,30.04,10.0,NE,8.1,-,N/A,,Clear,40,2012-11-05 21:53:00
5:53 PM,51.1,28.9,43,30.06,10.0,Calm,Calm,-,N/A,,Clear,0,2012-11-05 22:53:00
6:53 PM,48.0,32.0,54,30.09,10.0,Calm,Calm,-,N/A,,Clear,0,2012-11-05 23:53:00
7:53 PM,45.0,33.1,63,30.10,10.0,East,3.5,-,N/A,,Clear,80,2012-11-06 00:53:00
8:53 PM,48.9,28.9,46,30.10,10.0,ENE,4.6,-,N/A,,Clear,70,2012-11-06 01:53:00
9:53 PM,46.9,30.9,54,30.11,10.0,ENE,4.6,-,N/A,,Clear,70,2012-11-06 02:53:00
10:53 PM,44.1,33.1,65,30.11,10.0,ENE,4.6,-,N/A,,Clear,70,2012-11-06 03:53:00
11:53 PM,43.0,34.0,71,30.11,10.0,ENE,4.6,-,N/A,,Clear,60,2012-11-06 04:53:00